[[{"header":{"parameterUnit":"m.s-1","parameterCategory":1,"la1":30.2991,"la2":30.254,"lo1":-89.0895,"lo2":-89.0444,"dy":0.0017,"dx":0.0017,"nx":28,"ny":28,"refTime":"2024-10-12T21:00:00:Z","depth":0,"parameterNumber":2,"parameterNumberName":"U-component_of_WINDS"},"data":[0,0,0,0,0,0,0,0,0,0,0,0,0,0,0,0,0,0,0,0,0,0,0,0,0,0,0,0,0,0,0,0,0,0,0,0,0,0,0,0,0,0,0,0,0,0,0,0,0,0,0,0,0,0,0,0,0,0,1.3707,1.3707,0,1.3691,1.369,1.369,1.3658,1.3657,1.3657,1.3656,1.3638,1.3638,1.3638,0,0,0,0,0,0,0,0,0,0,0,0,0,1.3706,1.3706,1.3707,1.3707,1.3707,1.3691,1.369,1.369,1.3658,1.3657,1.3657,1.3656,1.3638,1.3638,1.3638,0,0,0,0,0,0,0,0,0,0,0,0,0,1.37,1.3707,1.3707,1.3689,1.3687,1.3691,1.369,1.369,1.3658,1.3657,1.3656,1.3656,1.3638,1.3638,1.3638,1.3658,0,0,1.3639,1.3639,0,0,0,0,0,0,0,0,1.37,1.37,1.3692,1.369,1.3688,1.3675,1.3683,1.3679,1.3659,1.3669,1.3656,1.3655,1.3651,1.365,1.3649,1.3657,1.3656,1.3639,1.3639,1.3639,1.3639,0,0,0,0,0,0,0,1.3701,1.37,1.37,1.3691,1.3689,1.368,1.3678,1.3683,1.3666,1.3668,1.3666,1.3664,1.365,1.3649,1.3648,1.3656,1.3639,1.3639,1.3639,1.3639,1.3675,1.3676,0,0,0,0,0,0,1.3704,1.3701,1.3701,1.37,1.3692,1.3681,1.3679,1.368,1.3665,1.3662,1.3665,1.3663,1.3649,1.3648,1.3648,1.3667,1.3639,1.3639,1.3639,1.3675,1.3676,1.3677,0,0,0,0,0,0,1.3704,1.3705,1.3702,1.37,1.3699,1.3682,1.3684,1.3681,1.368,1.3663,1.366,1.3668,1.3648,1.3647,1.3655,1.3666,1.3639,1.3639,1.3674,1.3675,1.3676,1.3708,0,0,0,0,0,0,1.3705,1.3705,1.3713,1.37,1.3699,1.3711,1.3685,1.3681,1.368,1.3677,1.3665,1.3662,1.3648,1.3655,1.3655,1.3666,1.3639,1.3672,1.3674,1.3676,1.3706,1.371,1.3714,0,0,0,0,0,1.3705,1.3724,1.3714,1.3714,1.3709,1.3711,1.371,1.3694,1.3681,1.3689,1.3677,1.3662,1.3665,1.3656,1.3656,1.3667,1.3672,1.3674,1.3676,1.3704,1.3709,1.3714,0,0,0,0,0,0,1.3739,1.3722,1.3711,1.3726,1.372,1.3706,1.3715,1.3701,1.3699,1.3696,1.3675,1.3673,1.3682,1.3675,1.3665,1.3683,1.3666,1.3668,1.3687,1.3692,1.3696,1.3697,1.3639,0,0,0,0,0,1.3748,1.3752,1.3736,1.3751,1.3749,1.3733,1.3733,1.3721,1.3714,1.3711,1.37,1.3693,1.3692,1.3692,1.3691,1.3705,1.37,1.3712,1.3716,1.372,1.3721,1.3725,1.3729,1.3683,1.3683,1.3683,0,0,1.3767,1.3758,1.3762,1.3758,1.3752,1.3755,1.3731,1.3736,1.3737,1.3711,1.3717,1.3709,1.37,1.371,1.3714,1.3704,1.3733,1.3722,1.3725,1.3725,1.3728,1.3732,1.3736,1.3684,1.3684,1.3684,0,0,1.3803,1.3798,1.3808,1.3802,1.3793,1.3782,1.3784,1.3771,1.3765,1.377,1.375,1.3751,1.3751,1.3743,1.374,1.377,1.3754,1.377,1.3791,1.3795,1.3799,1.3802,1.381,1.3813,1.3772,1.3772,1.3772,0,1.3828,1.3833,1.3816,1.382,1.3818,1.3795,1.3804,1.3799,1.3789,1.3787,1.3777,1.3774,1.3766,1.3773,1.378,1.3779,1.3779,1.3771,1.38,1.3802,1.3805,1.3813,1.3816,1.3774,1.3774,1.3773,1.3773,0,1.3862,1.3865,1.3874,1.3865,1.3864,1.3871,1.3853,1.3853,1.3841,1.383,1.3834,1.3823,1.3818,1.3819,1.3807,1.3823,1.3817,1.3804,1.3785,1.3812,1.3818,1.3821,1.3776,1.3776,1.3775,1.3775,0,0,1.392,1.3899,1.3903,1.3897,1.3884,1.3885,1.389,1.3885,1.3884,1.3878,1.388,1.3878,1.3865,1.3861,1.3848,1.3852,1.3872,1.3837,1.3837,1.3842,1.3886,1.3894,1.3898,1.3862,1.3863,1.3863,1.3886,0,1.3951,1.3959,1.3942,1.3953,1.3954,1.3931,1.3934,1.3926,1.3915,1.3913,1.3901,1.3899,1.3883,1.388,1.3883,1.3869,1.3881,1.3868,1.3862,1.3862,1.3863,1.3902,1.3912,1.3934,1.3888,1.3889,1.3889,0,1.3989,1.3984,1.3995,1.3978,1.3978,1.3982,1.3973,1.3973,1.3961,1.3953,1.3947,1.3931,1.3933,1.3916,1.3916,1.3907,1.3904,1.3897,1.3897,1.3895,1.3876,1.3899,1.394,1.3943,1.3894,1.3893,1.3893,0,1.4027,1.4023,1.4028,1.4024,1.4005,1.4008,1.4,1.3988,1.3985,1.3977,1.3974,1.3968,1.3963,1.3957,1.3939,1.3929,1.394,1.3923,1.3932,1.3932,1.3934,1.3934,1.3974,1.3935,1.3935,1.3935,1.3935,0,1.4062,1.4069,1.4044,1.4047,1.4053,1.4033,1.4039,1.4029,1.4018,1.4017,1.3997,1.3996,1.3973,1.3969,1.3955,1.3956,1.3955,1.3947,1.3942,1.3947,1.3948,1.3944,1.3941,1.3936,1.3936,1.3936,1.3935,0,1.4105,1.4089,1.4092,1.4074,1.4069,1.4074,1.4058,1.4059,1.4046,1.4045,1.4044,1.4023,1.4018,1.3999,1.3989,1.398,1.3984,1.3977,1.3987,1.3984,1.3993,1.3992,1.4031,1.4034,1.3995,1.3995,1.3996,0,1.4128,1.4133,1.4114,1.4112,1.4105,1.4103,1.4099,1.4079,1.4075,1.4061,1.4063,1.4056,1.4049,1.404,1.4024,1.4015,1.4007,1.4021,1.4005,1.4009,1.4004,1.4004,1.4003,1.4024,1.4025,1.4025,1.4025,0,1.417,1.4161,1.4156,1.4148,1.4144,1.4136,1.4128,1.4127,1.4104,1.4101,1.4094,1.4089,1.4078,1.407,1.4058,1.4048,1.4032,1.403,1.4031,1.4036,1.4041,1.4036,1.3994,1.4029,1.4029,1.4029,1.4028,1.4028,1.4202,1.4204,1.419,1.4185,1.4176,1.4168,1.4167,1.4153,1.4148,1.4137,1.4125,1.412,1.4106,1.4088,1.408,1.4074,1.4065,1.4068,1.4068,1.4069,1.407,1.4043,1.4072,1.4072,1.4072,1.4071,1.4071,0,1.424,1.423,1.4225,1.4213,1.4208,1.4194,1.4183,1.4179,1.4175,1.4163,1.4156,1.4147,1.4139,1.4121,1.4111,1.4109,1.4101,1.4107,1.4106,1.4104,1.4079,1.4078,1.4113,1.4113,1.4113,1.4113,1.4113,1.4113,1.426,1.4261,1.425,1.4245,1.4235,1.4229,1.4224,1.4215,1.4205,1.4197,1.4189,1.4178,1.4163,1.4151,1.4142,1.4137,1.4133,1.414,1.4133,1.411,1.4106,1.4102,1.4101,1.414,1.414,1.4157,1.4157,1.4157]},{"header":{"parameterUnit":"m.s-1","parameterCategory":1,"la1":30.2991,"la2":30.254,"lo1":-89.0895,"lo2":-89.0444,"dy":0.0017,"dx":0.0017,"nx":28,"ny":28,"refTime":"2024-10-12T21:00:00:Z","depth":0,"parameterNumber":3,"parameterNumberName":"V-component_of_WINDS"},"data":[0,0,0,0,0,0,0,0,0,0,0,0,0,0,0,0,0,0,0,0,0,0,0,0,0,0,0,0,0,0,0,0,0,0,0,0,0,0,0,0,0,0,0,0,0,0,0,0,0,0,0,0,0,0,0,0,0,0,2.6685,2.6685,0,2.6671,2.6671,2.667,2.6625,2.6624,2.6623,2.6622,2.6606,2.6606,2.6607,0,0,0,0,0,0,0,0,0,0,0,0,0,2.6671,2.6671,2.6685,2.6685,2.6685,2.6671,2.6671,2.667,2.6625,2.6624,2.6623,2.6622,2.6605,2.6606,2.6607,0,0,0,0,0,0,0,0,0,0,0,0,0,2.6669,2.6671,2.6685,2.6661,2.6658,2.6671,2.6671,2.667,2.6625,2.6624,2.6622,2.6621,2.6605,2.6606,2.6607,2.6641,0,0,2.6609,2.6609,0,0,0,0,0,0,0,0,2.6669,2.6669,2.6664,2.6662,2.666,2.6648,2.6659,2.6661,2.6626,2.6638,2.6622,2.662,2.6621,2.662,2.6621,2.6641,2.664,2.6609,2.6609,2.661,2.661,0,0,0,0,0,0,0,2.6669,2.667,2.6679,2.6664,2.6662,2.6649,2.6647,2.6659,2.6638,2.6637,2.6633,2.6632,2.6619,2.662,2.662,2.664,2.6609,2.661,2.661,2.661,2.6683,2.6685,0,0,0,0,0,0,2.6673,2.667,2.668,2.6679,2.6661,2.6651,2.6649,2.6653,2.6638,2.6634,2.6634,2.663,2.662,2.6619,2.6619,2.6656,2.661,2.661,2.6611,2.6682,2.6684,2.6685,0,0,0,0,0,0,2.6673,2.6674,2.668,2.6674,2.6673,2.6653,2.6658,2.6654,2.6655,2.6635,2.6631,2.6639,2.6618,2.6618,2.6635,2.6655,2.6611,2.6611,2.668,2.6683,2.6685,2.6732,0,0,0,0,0,0,2.6673,2.6675,2.6688,2.6674,2.6674,2.6698,2.666,2.6655,2.6656,2.6652,2.6639,2.6635,2.6617,2.6635,2.6636,2.6655,2.6612,2.6678,2.6681,2.6684,2.6728,2.6735,2.6741,0,0,0,0,0,2.6672,2.6703,2.6689,2.6691,2.6691,2.6699,2.6699,2.6678,2.6658,2.6671,2.6658,2.6636,2.6653,2.6637,2.6638,2.6658,2.6677,2.668,2.6684,2.6725,2.6734,2.6741,0,0,0,0,0,0,2.672,2.67,2.6685,2.6712,2.6708,2.6692,2.6707,2.6688,2.6689,2.6685,2.6658,2.6655,2.6676,2.6669,2.6651,2.6689,2.6661,2.6665,2.6692,2.67,2.6707,2.6707,2.6613,0,0,0,0,0,2.6733,2.6743,2.6725,2.675,2.6749,2.6729,2.6732,2.6716,2.671,2.6707,2.6696,2.669,2.6694,2.6697,2.67,2.6728,2.6722,2.6742,2.6748,2.6753,2.6756,2.6767,2.6775,2.6696,2.6696,2.6696,0,0,2.6761,2.6752,2.676,2.676,2.6754,2.6763,2.6727,2.6739,2.6744,2.6709,2.6724,2.6715,2.6707,2.6729,2.6738,2.6724,2.6777,2.6758,2.6762,2.6762,2.6772,2.6779,2.6786,2.6699,2.6698,2.6698,0,0,2.6816,2.6812,2.6831,2.6826,2.6818,2.6804,2.6808,2.6795,2.6788,2.6802,2.6775,2.6781,2.6789,2.6783,2.6782,2.6832,2.6811,2.6834,2.6867,2.6878,2.6884,2.689,2.6905,2.6911,2.6838,2.6838,2.6838,0,2.6852,2.6865,2.6843,2.6855,2.6855,2.6823,2.6841,2.6837,2.6831,2.683,2.6815,2.6822,2.6815,2.6833,2.6845,2.6846,2.6848,2.6835,2.6886,2.6891,2.6895,2.6909,2.6916,2.684,2.684,2.684,2.684,0,2.6908,2.6917,2.6933,2.6927,2.6928,2.6944,2.6922,2.6927,2.691,2.6897,2.6911,2.6901,2.69,2.6903,2.6888,2.6919,2.691,2.6891,2.6862,2.6906,2.6918,2.6924,2.6844,2.6843,2.6842,2.6842,0,0,2.6992,2.6972,2.6978,2.6974,2.6962,2.6968,2.6981,2.698,2.6982,2.6979,2.6987,2.6994,2.6975,2.6973,2.6956,2.6966,2.7003,2.6945,2.6944,2.6954,2.7034,2.7047,2.7054,2.699,2.6991,2.6992,2.7033,0,2.7042,2.7063,2.7042,2.7067,2.7073,2.7043,2.7054,2.7047,2.7035,2.7038,2.7024,2.7028,2.7005,2.7003,2.7012,2.6997,2.7019,2.6994,2.6995,2.6995,2.6996,2.7061,2.7075,2.7115,2.7039,2.7039,2.704,0,2.7103,2.7101,2.7126,2.711,2.7112,2.7122,2.7118,2.7122,2.7113,2.7103,2.71,2.708,2.7089,2.7063,2.7074,2.7058,2.7057,2.705,2.7051,2.7048,2.7019,2.7057,2.7128,2.7133,2.7048,2.7048,2.7047,0,2.7158,2.7162,2.7177,2.7175,2.7157,2.7165,2.7158,2.7147,2.7147,2.7143,2.7142,2.714,2.7138,2.7136,2.7114,2.7098,2.7127,2.71,2.7118,2.7118,2.7124,2.7123,2.7192,2.7128,2.7127,2.7127,2.7127,0,2.7215,2.723,2.7201,2.721,2.7226,2.7202,2.7218,2.7208,2.7198,2.7203,2.7178,2.7183,2.7155,2.7157,2.7141,2.7151,2.7151,2.7142,2.7137,2.7143,2.7144,2.7141,2.7136,2.7129,2.7129,2.7128,2.7128,0,2.7279,2.726,2.7273,2.7256,2.7251,2.7264,2.7248,2.7254,2.7241,2.7247,2.7247,2.7225,2.7226,2.7205,2.7201,2.719,2.7206,2.7197,2.7209,2.7205,2.7223,2.7221,2.7291,2.7298,2.7231,2.7232,2.7232,0,2.7315,2.7326,2.7309,2.731,2.7305,2.7308,2.7307,2.7284,2.7283,2.7273,2.728,2.7278,2.7275,2.7277,2.726,2.7256,2.7246,2.727,2.7245,2.7249,2.7243,2.7241,2.7241,2.7275,2.7276,2.7277,2.7277,0,2.738,2.7369,2.737,2.7366,2.7366,2.7362,2.7356,2.7359,2.7333,2.7334,2.7334,2.7332,2.7327,2.7325,2.7318,2.7309,2.7288,2.7285,2.7289,2.7294,2.7299,2.7294,2.7221,2.7284,2.7283,2.7282,2.7282,2.7282,2.7429,2.7436,2.7425,2.7425,2.7418,2.7413,2.7418,2.7404,2.7404,2.7398,2.7384,2.7386,2.7374,2.7362,2.7355,2.7355,2.7342,2.7348,2.7349,2.735,2.7353,2.7301,2.7354,2.7354,2.7354,2.7353,2.7353,0,2.749,2.7481,2.7482,2.7474,2.7474,2.7455,2.7447,2.7448,2.7449,2.7441,2.7438,2.7436,2.7434,2.7416,2.7411,2.7414,2.7404,2.7413,2.7411,2.7409,2.7366,2.7362,2.7421,2.7421,2.7421,2.7421,2.7421,2.7421,2.7522,2.7532,2.7521,2.7527,2.7517,2.7519,2.7516,2.751,2.7502,2.7502,2.7499,2.7488,2.7475,2.7468,2.7464,2.7459,2.7457,2.7469,2.746,2.7419,2.7413,2.7406,2.7402,2.7469,2.7469,2.7503,2.7503,2.7503]}]]